User: anonymous   Login
Location: Laverne
(36.7100°N, 99.8930°W)
Time: 07:52:18
(UTC-05:00)
Language:

Iridium 32 - Orbit

View from above orbital plane
View from above orbital plane
View from above satellite
View from above satellite

Ground track
Ground track

The orbit data is extracted from the following two-line orbital elements,

1 24945U 97051B   15185.48861088  .00000041  00000-0  74501-5 0  9996
2 24945 086.3959 225.4100 0002285 094.5725 265.5732 14.34214998932121
Epoch (UTC): 04 July 2015 11:43:35
Eccentricity: 0.0002285
inclination: 86.3959°
perigee height: 776 km
apogee height: 779 km
right ascension of ascending node: 225.4100°
argument of perigee: 94.5725°
revolutions per day: 14.34214998
mean anomaly at epoch: 265.5732°
orbit number at epoch: 93212

The dashed part of the orbit path shows where the satellite is in the earth's shadow,  

DLR